Pagina principale
METAR-TAF:

METAR-TAF

Aeroporti :

Le Luc, Francia

latitudine: 43-23N, longitudine: 006-23E, altezza: 80 m

Osservazione

Il bollettino è stato emesso 28 minuti fa, alle 20:00 UTC
Vento 3 kt da direzioni variabili
Temperature 23°C
Umidità 65%
Pressione 1017 hPa
Visibilità 10 km o più

METAR: LFMC 162000Z AUTO VRB03KT 9999 ////// 23/16 Q1017

Ora: 22:28 (20:28 UTC)


TAF: mancante

Osservazioni e previsioni meteorologiche di più di 4000 aeroporti (messaggi METAR e TAF).

Le stazioni disponibili sono rappresentate dai dischi gialli e rossi sulla carta.

Puntare il mouse per vedere il nome della stazione.

Clicca sopra per visualizzare le osservazioni e previsioni meteorologiche.

Per cambiare la mappa : fare clic sui pulsanti verdi con una croce nera per ingrandire, il pulsante verde con un trattino per diminuire, o sulla freccia verde per le mappe adiacenti.


METAR-TAF: